Location: Tel Aviv
(32.0670°N, 34.7670°E)
Time: 05:37:56
(UTC+03:00)

S-56A Canister/Altair - Visible Passes

Search period start: 18 August 2022 00:00
Search period end: 28 August 2022 00:00
Orbit: 635 x 2497 km, 38.9° (Epoch: 16 August)

Date Brightness Start Highest point End Pass type
(mag) Time Alt. Az. Time Alt. Az. Time Alt. Az.
18 Aug 10.8 00:02:07 10° WNW 00:11:08 29° WSW 00:11:08 29° WSW visible
18 Aug 9.9 21:20:44 10° WNW 21:35:19 81° SSW 21:42:25 40° SE visible
18 Aug 10.5 23:28:10 10° WNW 23:39:49 36° WSW 23:39:49 36° WSW visible
19 Aug 10.0 20:47:28 10° WNW 21:01:39 86° SSW 21:11:09 30° ESE visible
19 Aug 10.3 22:54:22 10° WNW 23:07:53 42° SW 23:08:33 42° SW visible
20 Aug 10.0 20:14:17 10° WNW 20:27:59 89° NNE 20:39:57 20° ESE visible
20 Aug 10.2 22:20:44 10° WNW 22:34:29 47° SW 22:37:22 44° SSW visible
21 Aug 11.5 00:33:21 10° WSW 00:34:46 11° WSW 00:34:46 11° WSW visible
21 Aug 10.0 19:41:12 10° WNW 19:54:18 84° NNE 20:08:50 12° ESE visible
21 Aug 10.2 21:47:15 10° WNW 22:01:01 52° SW 22:06:14 40° S visible
21 Aug 11.3 23:57:53 10° W 00:03:39 16° WSW 00:03:39 16° WSW visible
22 Aug 10.2 21:13:53 10° WNW 21:27:31 58° SW 21:35:12 33° SSE visible
22 Aug 11.1 23:23:11 10° W 23:32:37 20° SW 23:32:37 20° SW visible
23 Aug 10.2 20:40:38 10° WNW 20:53:59 63° SW 21:04:14 24° SE visible
23 Aug 11.0 22:48:55 10° W 22:59:30 24° SW 23:01:40 23° SW visible
24 Aug 10.1 20:07:31 10° WNW 20:20:25 68° SSW 20:33:22 16° SE visible
24 Aug 10.9 22:14:56 10° W 22:26:12 28° SW 22:30:48 24° SSW visible
25 Aug 10.1 19:34:29 10° WNW 19:46:53 73° SSW 20:02:03 10° SE visible
25 Aug 10.9 21:41:13 10° W 21:52:52 32° SW 22:00:01 22° S visible
26 Aug 10.8 21:07:41 10° WNW 21:19:29 36° SW 21:29:20 18° S visible
27 Aug 10.7 20:34:20 10° WNW 20:46:05 40° SW 20:58:44 12° SSE visible
